DW7032 Weather Reports


Display with metric or nautical units.
time (UTC)temp
F
wind
direction
speed
MPH
gust
MPH
rain 1hr
in
rain 24hr
in
rain mn
in
humidity
%
barometer
mb
20260509113039 48 179 0.0 4.0 0.00 0.00 0.00 71 997.7
20260509111537 47 185 1.0 3.0 0.00 0.00 0.00 72 997.6
20260509110036 46 186 0.0 3.0 0.00 0.00 0.00 71 997.8
20260509104539 46 186 0.0 2.0 0.00 0.00 0.00 71 998.1
20260509103033 45 186 0.0 2.0 0.00 0.00 0.00 70 998.2
20260509101537 46 186 0.0 1.0 0.00 0.00 0.00 67 998.3
20260509100028 46 186 0.0 1.0 0.00 0.00 0.00 65 998.8
20260509094525 46 187 0.0 1.0 0.00 0.00 0.00 66 999.0
20260509093035 45 184 1.0 3.0 0.00 0.00 0.00 67 999.4
20260509091523 44 233 0.0 2.0 0.00 0.00 0.00 70 999.4
20260509090021 44 237 0.0 2.0 0.00 0.00 0.00 73 999.6
20260509084527 44 236 0.0 2.0 0.00 0.00 0.00 74 999.6
20260509083021 45 236 0.0 2.0 0.00 0.00 0.00 74 999.8
20260509081522 45 238 0.0 1.0 0.00 0.00 0.00 70 1000.0
20260509080027 46 238 0.0 1.0 0.00 0.00 0.00 70 1000.0
20260509074511 46 237 0.0 1.0 0.00 0.00 0.00 69 1000.3
20260509073009 46 238 0.0 2.0 0.00 0.00 0.00 69 1000.6
20260509071506 46 238 0.0 2.0 0.00 0.00 0.00 68 1000.9
20260509070004 46 238 0.0 2.0 0.00 0.00 0.00 70 1001.2
20260509064504 46 238 0.0 2.0 0.00 0.00 0.00 70 1001.4
20260509063100 46 238 0.0 2.0 0.00 0.00 0.00 71 1001.6
20260509061558 46 237 0.0 2.0 0.00 0.00 0.00 74 1002.0
20260509060056 45 238 0.0 1.0 0.00 0.00 0.00 74 1002.2
20260509054554 45 238 0.0 2.0 0.00 0.00 0.00 74 1002.6
20260509053049 45 239 0.0 2.0 0.00 0.00 0.00 73 1002.8
20260509051552 46 239 0.0 2.0 0.00 0.00 0.00 73 1003.1
20260509050047 46 239 0.0 2.0 0.00 0.00 0.00 72 1003.2
20260509044541 47 239 0.0 3.0 0.00 0.00 0.00 72 1003.4
20260509043038 47 238 0.0 1.0 0.00 0.00 0.00 69 1003.6
20260509041537 47 238 0.0 2.0 0.00 0.00 0.00 67 1003.9
20260509040035 47 239 0.0 1.0 0.00 0.00 0.00 68 1004.1
20260509034531 47 238 0.0 2.0 0.00 0.00 0.00 66 1004.4
20260509033030 48 238 0.0 3.0 0.00 0.00 0.00 65 1004.4
20260509031532 48 237 0.0 2.0 0.00 0.00 0.00 70 1004.5
20260509030028 48 238 0.0 1.0 0.00 0.00 0.00 68 1004.5
20260509024527 48 237 0.0 1.0 0.00 0.00 0.00 66 1004.6
20260509023026 49 238 0.0 2.0 0.00 0.00 0.00 64 1004.8
20260509021526 49 241 0.0 1.0 0.00 0.00 0.00 63 1004.9
20260509020032 49 241 0.0 1.0 0.00 0.00 0.00 62 1005.0
20260509014537 50 241 0.0 1.0 0.00 0.00 0.00 61 1004.9
20260509013024 51 241 0.0 1.0 0.00 0.00 0.00 57 1004.8
20260509011524 51 241 0.0 0.0 0.00 0.00 0.00 49 1004.8
20260509010023 52 241 0.0 0.0 0.00 0.00 0.00 48 1004.8
20260509004524 53 241 0.0 2.0 0.00 0.00 0.00 46 1004.8
20260509003029 54 249 1.0 2.0 0.00 0.00 0.00 44 1004.9
20260509001519 55 283 0.0 2.0 0.00 0.00 0.00 43 1005.0
20260509000019 55 283 0.0 4.0 0.00 0.00 0.00 40 1005.1
20260508234517 56 277 0.0 3.0 0.00 0.00 0.00 39 1005.2
20260508233016 56 291 2.0 5.0 0.00 0.00 0.00 40 1005.4
20260508231515 57 289 3.0 7.0 0.00 0.00 0.00 37 1005.5
20260508230015 57 233 2.0 7.0 0.00 0.00 0.00 36 1005.4
20260508224513 57 296 1.0 4.0 0.00 0.00 0.00 36 1005.5
20260508223021 57 233 0.0 4.0 0.00 0.00 0.00 37 1005.6
20260508221510 55 237 2.0 7.0 0.00 0.00 0.00 38 1005.8
20260508220008 55 288 3.0 8.0 0.00 0.00 0.00 40 1006.0
20260508214507 55 220 1.0 6.0 0.00 0.00 0.00 41 1006.2
20260508213007 56 192 2.0 8.0 0.00 0.00 0.00 41 1006.2
20260508211511 56 311 4.0 8.0 0.00 0.00 0.00 41 1006.2
20260508210005 58 223 2.0 9.0 0.00 0.00 0.00 41 1006.3
20260508204506 56 300 3.0 10.0 0.00 0.00 0.00 44 1006.6
20260508203002 56 241 3.0 10.0 0.00 0.00 0.00 46 1006.7
20260508201601 55 209 2.0 11.0 0.00 0.00 0.00 45 1006.8
20260508200110 55 273 3.0 14.0 0.00 0.00 0.00 45 1007.0
20260508194603 56 307 5.0 10.0 0.00 0.00 0.00 44 1007.3
20260508193104 57 208 3.0 14.0 0.00 0.00 0.00 44 1007.5
20260508191555 56 189 2.0 6.0 0.00 0.00 0.00 48 1007.6
20260508190052 54 304 3.0 12.0 0.00 0.00 0.00 46 1007.6
20260508184551 54 347 3.0 11.0 0.00 0.00 0.00 47 1007.6
20260508183049 54 168 3.0 10.0 0.00 0.00 0.00 46 1007.7
20260508181545 54 229 4.0 11.0 0.00 0.00 0.00 49 1007.9
20260508180044 53 300 3.0 10.0 0.00 0.00 0.00 51 1007.9
20260508174550 54 179 6.0 10.0 0.00 0.00 0.00 48 1008.1
20260508173039 54 313 4.0 10.0 0.00 0.00 0.00 52 1008.2
20260508171539 54 202 2.0 9.0 0.00 0.00 0.00 49 1008.4
20260508170040 53 274 4.0 8.0 0.00 0.00 0.00 49 1008.5
20260508164539 53 266 5.0 9.0 0.00 0.00 0.00 52 1008.7
20260508163033 54 237 4.0 10.0 0.00 0.00 0.00 51 1008.9
20260508161534 51 209 5.0 10.0 0.00 0.00 0.00 54 1008.9
20260508160027 50 177 2.0 7.0 0.00 0.00 0.00 58 1009.0
20260508154536 49 223 2.0 10.0 0.00 0.00 0.00 59 1009.2
20260508153024 49 241 3.0 9.0 0.00 0.00 0.00 60 1009.4
20260508151530 49 187 4.0 9.0 0.00 0.00 0.00 58 1009.4
20260508150026 49 271 2.0 10.0 0.00 0.00 0.00 59 1009.4
20260508144521 50 347 4.0 9.0 0.00 0.00 0.00 60 1009.5
20260508143017 49 259 3.0 7.0 0.00 0.00 0.00 63 1009.5
20260508141518 47 197 1.0 8.0 0.00 0.00 0.00 65 1009.6
20260508140019 46 209 4.0 8.0 0.00 0.00 0.00 66 1009.7
20260508134508 45 173 2.0 6.0 0.00 0.00 0.00 68 1009.6
20260508133002 44 218 1.0 8.0 0.00 0.00 0.00 70 1009.7
20260508131600 44 295 1.0 5.0 0.00 0.00 0.00 72 1009.9
20260508130106 44 167 3.0 11.0 0.00 0.00 0.00 70 1009.8
20260508124554 43 223 1.0 7.0 0.00 0.00 0.00 74 1009.9
20260508123056 41 200 2.0 6.0 0.00 0.00 0.00 78 1009.9
20260508121546 40 261 3.0 5.0 0.00 0.00 0.00 81 1010.1
20260508120041 39 180 1.0 4.0 0.00 0.00 0.00 83 1010.2
20260508114547 38 191 1.0 3.0 0.00 0.00 0.00 84 1010.2